Weather History for Buffalo, WY

Change the Weather History Date:

Saturday, October 13, 2012

  Actual Average Record
Temperature  
Mean Temperature 54 °F 47 °F  
Max Temperature 63 °F 59 °F 78 °F (1998)
Min Temperature 45 °F 35 °F 19 °F (2008)
Degree Days  
Heating Degree Days 12 18  
Month to date heating degree days 212  
Since 1 July heating degree days 526  
Cooling Degree Days 0 0  
Month to date cooling degree days 0  
Year to date cooling degree days 491  
Growing Degree Days 4 (Base 50)    
Moisture  
Dew Point 31 °F    
Average Humidity 42    
Maximum Humidity 65    
Minimum Humidity 28    
Precipitation  
Precipitation 0.00 in 0.04 in 0.67 in (2007)
Month to date precipitation 0.53  
Year to date precipitation 12.11  
Sea Level Pressure  
Sea Level Pressure 29.85 in    
Wind  
Wind Speed 12 mph (NNW)    
Max Wind Speed 21 mph    
Max Gust Speed 34 mph    
Visibility 10 miles    
Events      
T = Trace of Precipitation, MM = Missing Value Source: NWS Daily Summary

Daily Weather History Graph

Daily Weather History Graph

Search for Another Location

Airport:

Trip Planner

Search our weather history database for the weather conditions in past years. The results will help you decide how hot, cold, wet, or windy it might be!

Date:

Astronomy

Oct. 13, 2012 Rise Set
Actual Time 7:20 AM MDT 6:25 PM MDT
Civil Twilight 6:50 AM MDT 6:54 PM MDT
Nautical Twilight 6:17 AM MDT 7:27 PM MDT
Astronomical Twilight 5:43 AM MDT 8:01 PM MDT
Moon 5:09 AM MDT (10/13) 5:12 PM MDT (10/13)
Length of Visible Light 12h 03m
Length of Day
11h 05m
Waning Crescent, 4% of the Moon is Illuminated
Oct 13
Waning Crescent
Oct 15
New
Oct 21
First Quarter
Oct 29
Full
Nov 6
Last Quarter

Hourly Weather History & Observations

Time (MDT) Temp. Windchill Dew Point Humidity Pressure Visibility Wind Dir Wind Speed Gust Speed Precip Events Conditions
12:53 AM 55.0 °F - 32.0 °F 42% 29.67 in 10.0 mi WNW 13.8 mph - N/A   Clear
1:53 AM 53.1 °F - 32.0 °F 45% 29.67 in 10.0 mi WNW 12.7 mph - N/A   Clear
2:53 AM 53.1 °F - 33.1 °F 47% 29.68 in 10.0 mi WNW 13.8 mph - N/A   Clear
3:53 AM 54.0 °F - 33.1 °F 45% 29.68 in 10.0 mi NW 12.7 mph - N/A   Scattered Clouds
4:53 AM 57.0 °F - 32.0 °F 39% 29.70 in 10.0 mi NNW 17.3 mph 27.6 mph N/A   Clear
5:53 AM 51.1 °F - 30.0 °F 44% 29.77 in 10.0 mi NNW 12.7 mph - N/A   Clear
6:53 AM 48.9 °F - 28.9 °F 46% 29.81 in 10.0 mi NNW 11.5 mph 25.3 mph N/A   Partly Cloudy
7:53 AM 46.0 °F 41.4 °F 27.0 °F 47% 29.86 in 10.0 mi West 9.2 mph - N/A   Clear
8:53 AM 54.0 °F - 28.0 °F 37% 29.87 in 10.0 mi NNW 5.8 mph - N/A   Clear
9:53 AM 57.9 °F - 28.0 °F 32% 29.87 in 10.0 mi NNW 5.8 mph - N/A   Clear
10:53 AM 59.0 °F - 27.0 °F 29% 29.87 in 10.0 mi North 18.4 mph 25.3 mph N/A   Clear
11:53 AM 60.1 °F - 28.0 °F 30% 29.86 in 10.0 mi North 9.2 mph - N/A   Clear
12:53 PM 62.1 °F - 28.0 °F 28% 29.86 in 10.0 mi NNE 6.9 mph - N/A   Partly Cloudy
1:53 PM 61.0 °F - 28.0 °F 29% 29.87 in 10.0 mi North 9.2 mph - N/A   Scattered Clouds
2:53 PM 60.1 °F - 28.9 °F 31% 29.90 in 10.0 mi North 12.7 mph 21.9 mph N/A   Overcast
3:53 PM 59.0 °F - 28.9 °F 32% 29.91 in 10.0 mi North 20.7 mph 34.5 mph N/A   Mostly Cloudy
4:53 PM 55.9 °F - 36.0 °F 47% 29.92 in 10.0 mi NNW 18.4 mph 26.5 mph N/A   Overcast
6:53 PM 52.0 °F - 37.9 °F 59% 30.01 in 10.0 mi WNW 5.8 mph - N/A   Overcast
8:53 PM 48.9 °F - 36.0 °F 61% 30.04 in 10.0 mi NNW 8.1 mph - N/A   Partly Cloudy
9:53 PM 45.0 °F 40.6 °F 34.0 °F 65% 30.06 in 10.0 mi West 8.1 mph - N/A   Clear
11:53 PM 51.1 °F - 30.0 °F 44% 30.06 in 10.0 mi NW 10.4 mph - N/A   Clear